DW7287 Weather Reports


time (UTC)temp
C
wind
direction
speed
KPH
gust
KPH
rain 1hr
cm
rain 24hr
cm
rain mn
cm
humidity
%
barometer
mb
20200922210742 23 303 0.0 3.2 0.00 0.03 0.00 45 1020.0
20200922210240 23 326 3.2 4.8 0.00 0.03 0.00 45 1019.9
20200922205739 23 287 0.0 0.0 0.00 0.03 0.00 45 1020.1
20200922205239 23 287 0.0 1.6 0.00 0.03 0.00 48 1020.0
20200922204739 23 327 0.0 0.0 0.00 0.03 0.00 48 1020.0
20200922204239 23 328 0.0 0.0 0.00 0.03 0.00 48 1020.1
20200922203740 22 326 0.0 6.4 0.00 0.03 0.00 48 1020.2
20200922203239 22 299 0.0 1.6 0.00 0.03 0.00 51 1020.2
20200922202741 22 275 0.0 3.2 0.00 0.03 0.00 50 1020.3
20200922202243 22 248 0.0 1.6 0.00 0.03 0.00 51 1020.4
20200922201742 22 256 0.0 0.0 0.00 0.03 0.00 52 1020.4
20200922201239 22 314 0.0 9.7 0.00 0.03 0.00 49 1020.4
20200922200739 22 265 0.0 1.6 0.00 0.03 0.00 49 1020.4
20200922200239 22 314 0.0 4.8 0.00 0.03 0.00 48 1020.4
20200922195739 22 293 0.0 11.3 0.00 0.03 0.00 48 1020.3
20200922195244 22 251 0.0 8.0 0.00 0.03 0.00 52 1020.3
20200922194742 21 114 0.0 0.0 0.00 0.03 0.00 53 1020.4
20200922194239 21 121 0.0 0.0 0.00 0.03 0.00 51 1020.3
20200922193740 22 330 0.0 9.7 0.00 0.03 0.00 50 1020.4
20200922193239 22 312 0.0 8.0 0.00 0.03 0.00 49 1020.5
20200922192739 21 311 4.8 11.3 0.00 0.03 0.00 53 1020.6
20200922192241 21 262 0.0 4.8 0.00 0.03 0.00 52 1020.6
20200922191744 21 276 0.0 0.0 0.00 0.03 0.00 53 1020.6
20200922191240 21 66 0.0 9.7 0.00 0.03 0.00 50 1020.8
20200922190739 22 307 0.0 1.6 0.00 0.03 0.00 49 1020.9
20200922190239 21 332 0.0 0.0 0.00 0.03 0.00 53 1021.0
20200922185740 22 312 0.0 6.4 0.00 0.03 0.00 49 1021.0
20200922185239 22 289 0.0 6.4 0.00 0.03 0.00 48 1021.0
20200922184739 22 234 0.0 8.0 0.00 0.03 0.00 48 1021.0
20200922184240 22 222 0.0 8.0 0.00 0.03 0.00 49 1021.1
20200922183746 22 288 0.0 0.0 0.00 0.03 0.00 50 1021.3
20200922183239 22 289 0.0 4.8 0.00 0.03 0.00 51 1021.3
20200922182739 22 55 0.0 0.0 0.00 0.03 0.00 52 1021.3
20200922182239 21 55 1.6 3.2 0.00 0.03 0.00 53 1021.5
20200922181740 20 55 0.0 6.4 0.00 0.03 0.00 54 1021.7
20200922181239 20 104 0.0 4.8 0.00 0.03 0.00 56 1021.8
20200922180739 21 143 0.0 3.2 0.00 0.03 0.00 54 1021.9
20200922180239 20 143 0.0 1.6 0.00 0.03 0.00 56 1022.0
20200922175739 21 222 0.0 4.8 0.00 0.03 0.00 52 1022.0
20200922175239 21 219 3.2 4.8 0.00 0.03 0.00 52 1022.0
20200922174744 21 98 0.0 1.6 0.00 0.03 0.00 55 1022.0
20200922174239 19 88 0.0 3.2 0.00 0.03 0.00 59 1022.2
20200922173740 20 88 3.2 4.8 0.00 0.03 0.00 53 1022.3
20200922173240 21 220 4.8 4.8 0.00 0.03 0.00 53 1022.4
20200922172740 21 199 0.0 3.2 0.00 0.03 0.00 52 1022.4
20200922172239 21 295 0.0 4.8 0.00 0.03 0.00 51 1022.5
20200922171741 21 322 0.0 8.0 0.00 0.03 0.00 51 1022.7
20200922171246 21 321 4.8 11.3 0.00 0.03 0.00 52 1022.7
20200922170744 20 320 1.6 11.3 0.00 0.03 0.00 51 1022.8
20200922170240 20 277 1.6 6.4 0.00 0.03 0.00 51 1022.8
20200922165739 21 278 0.0 4.8 0.00 0.03 0.00 53 1022.8
20200922165240 21 305 1.6 4.8 0.00 0.03 0.00 55 1023.0
20200922164739 20 268 1.6 9.7 0.00 0.03 0.00 56 1023.2
20200922164239 19 25 1.6 3.2 0.00 0.03 0.00 59 1023.2
20200922163739 18 24 0.0 8.0 0.00 0.03 0.00 62 1023.3
20200922163242 18 45 4.8 8.0 0.00 0.03 0.00 58 1023.4
20200922162739 19 247 0.0 4.8 0.00 0.03 0.00 57 1023.4
20200922162239 19 279 1.6 4.8 0.00 0.03 0.00 57 1023.4
20200922161739 20 330 3.2 9.7 0.00 0.03 0.00 58 1023.5
20200922161240 19 306 4.8 11.3 0.00 0.03 0.00 61 1023.6
20200922160740 18 345 1.6 8.0 0.00 0.03 0.00 63 1023.7
20200922160240 18 94 1.6 4.8 0.00 0.03 0.00 64 1023.7
20200922155739 18 339 4.8 6.4 0.00 0.03 0.00 68 1023.7
20200922155250 18 277 1.6 4.8 0.00 0.03 0.00 67 1023.8
20200922154739 18 283 0.0 11.3 0.00 0.03 0.00 67 1023.8
20200922154239 18 293 1.6 4.8 0.00 0.03 0.00 68 1023.9
20200922153739 18 308 0.0 4.8 0.00 0.03 0.00 68 1023.9
20200922153239 18 305 0.0 4.8 0.00 0.03 0.00 68 1024.0
20200922152739 17 311 0.0 8.0 0.00 0.03 0.00 69 1024.1
20200922152239 17 311 1.6 9.7 0.00 0.03 0.00 71 1024.2
20200922151741 17 233 0.0 6.4 0.00 0.03 0.00 68 1024.1
20200922151239 17 262 3.2 3.2 0.00 0.03 0.00 72 1024.2
20200922150739 16 248 0.0 3.2 0.00 0.03 0.00 72 1024.1
20200922150239 16 239 0.0 4.8 0.00 0.03 0.00 71 1024.1
20200922145739 16 277 0.0 6.4 0.00 0.03 0.00 71 1024.1
20200922145239 16 278 1.6 4.8 0.00 0.03 0.00 72 1024.2
20200922144739 16 304 0.0 8.0 0.00 0.03 0.00 74 1024.3
20200922144239 16 304 6.4 8.0 0.00 0.03 0.00 76 1024.3
20200922143741 15 251 0.0 4.8 0.00 0.03 0.00 77 1024.3
20200922143239 15 300 0.0 1.6 0.00 0.03 0.00 82 1024.3
20200922142739 14 301 0.0 1.6 0.00 0.03 0.00 83 1024.4
20200922142239 13 359 0.0 4.8 0.00 0.03 0.00 84 1024.3
20200922141742 13 299 0.0 1.6 0.00 0.03 0.00 86 1024.2
20200922141239 13 299 0.0 3.2 0.00 0.03 0.00 85 1024.2
20200922140745 13 359 0.0 1.6 0.00 0.03 0.00 90 1024.2
20200922140239 12 359 0.0 1.6 0.00 0.03 0.00 91 1024.2
20200922135740 12 359 0.0 1.6 0.00 0.03 0.00 94 1024.3
20200922135244 11 298 0.0 0.0 0.00 0.03 0.00 95 1024.4
20200922134739 11 297 0.0 0.0 0.00 0.03 0.00 96 1024.4
20200922134239 11 298 0.0 0.0 0.00 0.03 0.00 97 1024.4
20200922133739 10 297 0.0 1.6 0.00 0.03 0.00 97 1024.3
20200922133239 10 359 0.0 0.0 0.00 0.03 0.00 98 1024.4
20200922132739 9 359 0.0 0.0 0.00 0.03 0.00 97 1024.4
20200922132249 9 291 0.0 1.6 0.00 0.03 0.00 98 1024.4
20200922131740 8 359 0.0 0.0 0.00 0.03 0.00 98 1024.4
20200922131243 8 290 0.0 0.0 0.00 0.03 0.00 98 1024.4
20200922130739 8 291 0.0 0.0 0.00 0.03 0.00 98 1024.5
20200922130241 7 290 0.0 0.0 0.00 0.03 0.00 98 1024.4
20200922125739 7 288 0.0 1.6 0.00 0.03 0.00 98 1024.4
20200922125239 7 290 0.0 0.0 0.00 0.03 0.00 98 1024.5
20200922124739 7 288 0.0 0.0 0.00 0.03 0.00 98 1024.5
20200922124240 6 359 0.0 0.0 0.00 0.03 0.00 98 1024.6
20200922123739 6 288 0.0 0.0 0.00 0.03 0.00 97 1024.6
20200922123241 5 289 0.0 0.0 0.00 0.03 0.00 97 1024.6
20200922122741 5 287 0.0 0.0 0.00 0.03 0.00 97 1024.7
20200922122307 5 291 0.0 0.0 0.00 0.03 0.00 97 1024.7
20200922121748 4 291 0.0 0.0 0.00 0.03 0.00 97 1024.8
20200922121239 4 289 0.0 0.0 0.00 0.03 0.00 97 1024.8
20200922120739 4 291 0.0 0.0 0.00 0.03 0.00 97 1024.9
20200922120240 4 359 0.0 0.0 0.00 0.03 0.00 97 1024.9
20200922115739 3 289 0.0 0.0 0.00 0.03 0.00 97 1024.7
20200922115239 3 359 0.0 0.0 0.00 0.03 0.00 97 1024.8
20200922114739 3 290 0.0 0.0 0.00 0.03 0.00 97 1024.8
20200922114239 3 291 0.0 0.0 0.00 0.03 0.00 97 1024.8
20200922113739 3 289 0.0 0.0 0.00 0.03 0.00 97 1024.8
20200922113239 3 291 0.0 0.0 0.00 0.03 0.00 97 1024.8
20200922112741 3 290 0.0 0.0 0.00 0.03 0.00 97 1024.7
20200922112239 3 359 0.0 0.0 0.00 0.03 0.00 97 1024.7
20200922111739 4 359 0.0 0.0 0.00 0.03 0.00 97 1024.6
20200922111239 4 359 0.0 0.0 0.00 0.03 0.00 97 1024.6
20200922110739 4 291 0.0 0.0 0.00 0.03 0.00 97 1024.6
20200922110241 4 289 0.0 0.0 0.00 0.03 0.00 97 1024.7
20200922105739 4 289 0.0 0.0 0.00 0.03 0.00 97 1024.8
20200922105239 4 289 0.0 0.0 0.00 0.03 0.00 97 1024.8
20200922104742 4 289 0.0 0.0 0.00 0.03 0.00 97 1024.7
20200922104244 4 291 0.0 0.0 0.00 0.03 0.00 97 1024.8
20200922103740 4 359 0.0 0.0 0.00 0.03 0.00 97 1024.8
20200922103240 4 359 0.0 0.0 0.00 0.03 0.00 97 1024.8
20200922102740 4 359 0.0 0.0 0.00 0.03 0.00 97 1024.7
20200922102247 4 290 0.0 0.0 0.00 0.03 0.00 97 1024.7
20200922101739 4 290 0.0 0.0 0.00 0.03 0.00 97 1024.5
20200922101239 4 290 0.0 0.0 0.00 0.03 0.00 97 1024.6
20200922100745 4 290 0.0 0.0 0.00 0.03 0.00 97 1024.5
20200922100239 4 289 0.0 0.0 0.00 0.03 0.00 97 1024.6
20200922095741 4 359 0.0 0.0 0.00 0.03 0.00 97 1024.6
20200922095243 5 289 0.0 0.0 0.00 0.03 0.00 97 1024.6
20200922094738 5 290 0.0 0.0 0.00 0.03 0.00 97 1024.6
20200922094239 5 289 0.0 0.0 0.00 0.03 0.00 97 1024.6
20200922093743 5 359 0.0 0.0 0.00 0.03 0.00 97 1024.6
20200922093241 5 290 0.0 0.0 0.00 0.03 0.00 97 1024.6
20200922092739 5 289 0.0 0.0 0.00 0.03 0.00 97 1024.7
20200922092244 5 290 0.0 0.0 0.00 0.03 0.00 97 1024.7
20200922091739 5 289 0.0 0.0 0.00 0.03 0.00 97 1024.7
20200922091238 5 291 0.0 0.0 0.00 0.03 0.00 97 1024.7
20200922090739 5 359 0.0 0.0 0.00 0.03 0.00 97 1024.8
20200922090239 5 289 0.0 0.0 0.00 0.03 0.00 97 1024.8
20200922085739 5 359 0.0 0.0 0.03 0.03 0.00 97 1024.8
20200922085241 5 359 0.0 0.0 0.03 0.03 0.00 97 1024.8
20200922084739 5 289 0.0 0.0 0.03 0.03 0.00 97 1024.8
20200922084239 5 359 0.0 0.0 0.03 0.03 0.00 97 1024.8
20200922083738 5 359 0.0 0.0 0.03 0.03 0.00 97 1024.8
20200922083242 5 290 0.0 0.0 0.03 0.03 0.00 97 1025.0
20200922082738 5 359 0.0 0.0 0.03 0.03 0.00 97 1025.0
20200922082239 6 291 0.0 0.0 0.03 0.03 0.00 97 1025.0
20200922081740 6 359 0.0 0.0 0.03 0.03 0.00 97 1025.1
20200922081239 6 289 0.0 0.0 0.03 0.03 0.00 97 1025.2
20200922080739 6 289 0.0 0.0 0.03 0.03 0.00 97 1025.1
20200922080238 6 289 0.0 0.0 0.03 0.03 0.00 97 1025.2
20200922075738 6 290 0.0 0.0 0.00 0.00 0.00 97 1025.2
20200922075241 6 289 0.0 0.0 0.00 0.00 0.00 97 1025.3
20200922074742 6 289 0.0 0.0 0.00 0.00 0.00 97 1025.3
20200922074244 6 289 0.0 0.0 0.00 0.00 0.00 97 1025.4
20200922073738 6 359 0.0 0.0 0.00 0.00 0.00 96 1025.5
20200922073240 6 291 0.0 0.0 0.00 0.00 0.00 97 1025.5
20200922072738 6 359 0.0 0.0 0.00 0.00 0.00 97 1025.6
20200922072239 6 359 0.0 0.0 0.00 0.00 0.00 97 1025.5
20200922071739 6 291 0.0 0.0 0.00 0.00 0.00 96 1025.5
20200922071239 6 289 0.0 0.0 0.00 0.00 0.00 96 1025.6
20200922070738 6 289 0.0 0.0 0.00 0.00 0.00 96 1025.6
20200922070238 6 359 0.0 0.0 0.00 0.00 0.00 96 1025.6
20200922065738 6 290 0.0 0.0 0.00 0.00 0.00 97 1025.6
20200922065248 6 359 0.0 0.0 0.00 0.00 0.00 97 1025.7
20200922064742 6 291 0.0 0.0 0.00 0.00 0.00 97 1025.7
20200922064239 6 359 0.0 0.0 0.00 0.00 0.00 96 1025.7
20200922063739 6 291 0.0 0.0 0.00 0.00 0.00 96 1025.8
20200922063239 6 289 0.0 0.0 0.00 0.00 0.00 97 1025.8
20200922062738 6 289 0.0 0.0 0.00 0.00 0.00 96 1025.8
20200922062248 6 291 0.0 0.0 0.00 0.00 0.00 96 1025.8
20200922061739 6 359 0.0 0.0 0.00 0.00 0.00 96 1025.9
20200922061239 7 290 0.0 0.0 0.00 0.00 0.00 96 1025.9
20200922060739 7 291 0.0 0.0 0.00 0.00 0.00 96 1026.0
20200922060240 7 359 0.0 0.0 0.00 0.00 0.00 96 1026.0
20200922055740 7 359 0.0 0.0 0.00 0.00 0.00 96 1026.0
20200922055238 7 289 0.0 0.0 0.00 0.00 0.00 96 1026.2
20200922054739 7 289 0.0 0.0 0.00 0.00 0.00 96 1026.2
20200922054238 7 289 0.0 0.0 0.00 0.00 0.00 96 1026.2
20200922053740 7 289 0.0 0.0 0.00 0.00 0.00 96 1026.3
20200922053239 7 289 0.0 0.0 0.00 0.00 0.00 96 1026.3
20200922052744 7 290 0.0 0.0 0.00 0.00 0.00 96 1026.4
20200922052240 7 289 0.0 0.0 0.00 0.00 0.00 96 1026.4
20200922051739 7 359 0.0 0.0 0.00 0.00 0.00 96 1026.4
20200922051242 7 290 0.0 0.0 0.00 0.00 0.00 96 1026.4
20200922050738 7 289 0.0 0.0 0.00 0.00 0.00 96 1026.5
20200922050239 7 290 0.0 0.0 0.00 0.00 0.00 96 1026.5
20200922045742 7 289 0.0 0.0 0.00 0.00 0.00 96 1026.5
20200922045238 7 289 0.0 0.0 0.00 0.00 0.00 96 1026.5
20200922044741 7 289 0.0 0.0 0.00 0.00 0.00 96 1026.5
20200922044238 7 289 0.0 0.0 0.00 0.00 0.00 96 1026.5
20200922043740 7 290 0.0 0.0 0.00 0.00 0.00 96 1026.6
20200922043238 7 289 0.0 0.0 0.00 0.00 0.00 96 1026.6
20200922042739 8 359 0.0 0.0 0.00 0.00 0.00 96 1026.7
20200922042245 8 359 0.0 0.0 0.00 0.00 0.00 96 1026.8
20200922041741 8 359 0.0 0.0 0.00 0.00 0.00 96 1026.8
20200922041239 8 359 0.0 0.0 0.00 0.00 0.00 96 1026.8
20200922040742 8 290 0.0 0.0 0.00 0.00 0.00 96 1026.9
20200922040239 8 289 0.0 0.0 0.00 0.00 0.00 96 1026.9
20200922035738 8 289 0.0 0.0 0.00 0.00 0.00 96 1026.9
20200922035244 8 290 0.0 0.0 0.00 0.00 0.00 96 1026.9
20200922034739 8 289 0.0 0.0 0.00 0.00 0.00 96 1026.9
20200922034238 8 289 0.0 0.0 0.00 0.00 0.00 96 1026.9
20200922033739 8 290 0.0 0.0 0.00 0.00 0.00 96 1027.0
20200922033238 8 289 0.0 0.0 0.00 0.00 0.00 96 1027.0
20200922032740 8 289 0.0 0.0 0.00 0.00 0.00 96 1026.9
20200922032239 8 289 0.0 0.0 0.00 0.00 0.00 96 1026.9
20200922031739 8 290 0.0 0.0 0.00 0.00 0.00 96 1026.9
20200922031238 8 290 0.0 0.0 0.00 0.00 0.00 96 1027.0
20200922030742 8 289 0.0 0.0 0.00 0.00 0.00 96 1026.9
20200922030242 9 289 0.0 0.0 0.00 0.00 0.00 96 1026.9
20200922025739 9 289 0.0 0.0 0.00 0.00 0.00 95 1027.0
20200922025246 9 289 0.0 0.0 0.00 0.00 0.00 95 1027.0
20200922024738 9 289 0.0 1.6 0.00 0.00 0.00 95 1027.0
20200922024241 9 289 0.0 0.0 0.00 0.00 0.00 95 1027.0
20200922023739 9 290 0.0 1.6 0.00 0.00 0.00 95 1027.1
20200922023239 9 289 0.0 0.0 0.00 0.00 0.00 95 1027.0
20200922022739 9 290 0.0 0.0 0.00 0.00 0.00 95 1027.1
20200922022239 9 290 0.0 0.0 0.00 0.00 0.00 95 1027.1
20200922021739 9 290 0.0 0.0 0.00 0.00 0.00 94 1027.1
20200922021239 9 290 0.0 0.0 0.00 0.00 0.00 95 1027.2
20200922020741 10 289 0.0 0.0 0.00 0.00 0.00 94 1027.1
20200922020238 10 290 0.0 0.0 0.00 0.00 0.00 94 1027.0
20200922015739 10 289 0.0 0.0 0.00 0.00 0.00 94 1027.1
20200922015238 10 289 0.0 0.0 0.00 0.00 0.00 94 1027.1
20200922014740 10 289 0.0 0.0 0.00 0.00 0.00 94 1027.1
20200922014239 10 289 0.0 0.0 0.00 0.00 0.00 94 1027.1
20200922013739 10 290 0.0 0.0 0.00 0.00 0.00 93 1027.1
20200922013238 10 289 0.0 0.0 0.00 0.00 0.00 93 1027.0
20200922012739 10 290 0.0 0.0 0.00 0.00 0.00 93 1027.0
20200922012240 10 290 0.0 0.0 0.00 0.00 0.00 93 1027.1
20200922011739 10 290 0.0 0.0 0.00 0.00 0.00 93 1027.1
20200922011241 10 290 0.0 0.0 0.00 0.00 0.00 92 1027.1
20200922010741 11 289 0.0 0.0 0.00 0.00 0.00 92 1027.1
20200922010238 11 290 0.0 0.0 0.00 0.00 0.00 92 1027.1
20200922005740 11 289 0.0 0.0 0.00 0.00 0.00 91 1027.2
20200922005239 11 289 0.0 0.0 0.00 0.00 0.00 91 1027.2
20200922004740 11 290 0.0 0.0 0.00 0.00 0.00 91 1027.2
20200922004242 11 290 0.0 0.0 0.00 0.00 0.00 90 1027.2
20200922003738 11 290 0.0 0.0 0.00 0.00 0.00 90 1027.1
20200922003241 11 290 0.0 0.0 0.00 0.00 0.00 89 1027.1
20200922002741 12 289 0.0 0.0 0.00 0.00 0.00 89 1027.1
20200922002239 12 290 0.0 0.0 0.00 0.00 0.00 88 1027.0
20200922001742 12 290 0.0 0.0 0.00 0.00 0.00 88 1027.0
20200922001238 12 290 0.0 0.0 0.00 0.00 0.00 87 1026.9
20200922000739 12 290 0.0 0.0 0.00 0.00 0.00 86 1026.9
20200922000243 12 290 0.0 0.0 0.00 0.00 0.00 86 1026.8
20200921235739 13 290 0.0 0.0 0.00 0.00 0.00 85 1026.9
20200921235239 13 290 0.0 0.0 0.00 0.00 0.00 84 1026.8
20200921234743 13 289 0.0 0.0 0.00 0.00 0.00 83 1026.8
20200921234238 13 290 0.0 0.0 0.00 0.00 0.00 82 1026.8
20200921233739 13 290 0.0 0.0 0.00 0.00 0.00 81 1026.8
20200921233239 14 290 0.0 0.0 0.00 0.00 0.00 81 1026.8
20200921232739 14 290 0.0 0.0 0.00 0.00 0.00 80 1026.9
20200921232241 15 289 0.0 0.0 0.00 0.00 0.00 79 1026.8
20200921231739 15 289 0.0 0.0 0.00 0.00 0.00 77 1026.7
20200921231238 15 290 0.0 0.0 0.00 0.00 0.00 77 1026.8
20200921230738 15 289 0.0 0.0 0.00 0.00 0.00 75 1026.8
20200921230238 15 290 0.0 0.0 0.00 0.00 0.00 75 1026.8
20200921225739 16 290 0.0 0.0 0.00 0.00 0.00 74 1026.8
20200921225242 16 289 0.0 0.0 0.00 0.00 0.00 73 1027.0
20200921224738 16 290 0.0 0.0 0.00 0.00 0.00 70 1026.9
20200921224241 17 290 0.0 0.0 0.00 0.00 0.00 70 1026.9
20200921223740 17 289 0.0 0.0 0.00 0.00 0.00 68 1026.9
20200921223238 18 290 0.0 0.0 0.00 0.00 0.00 64 1027.0
20200921222739 18 289 0.0 0.0 0.00 0.00 0.00 62 1027.1
20200921222250 18 289 0.0 0.0 0.00 0.00 0.00 60 1027.2
20200921221739 18 290 0.0 0.0 0.00 0.00 0.00 59 1027.2
20200921221241 19 288 0.0 0.0 0.00 0.00 0.00 59 1027.2
20200921220739 19 288 0.0 0.0 0.00 0.00 0.00 57 1027.2
20200921220239 20 81 0.0 1.6 0.00 0.00 0.00 56 1027.2
20200921215739 20 74 0.0 0.0 0.00 0.00 0.00 56 1027.3
20200921215239 20 99 0.0 1.6 0.00 0.00 0.00 56 1027.2
20200921214742 20 97 0.0 0.0 0.00 0.00 0.00 55 1027.3
20200921214241 20 97 0.0 0.0 0.00 0.00 0.00 54 1027.3
20200921213740 20 97 0.0 0.0 0.00 0.00 0.00 53 1027.3
20200921213239 20 118 0.0 0.0 0.00 0.00 0.00 55 1027.3
20200921212741 20 4 0.0 0.0 0.00 0.00 0.00 54 1027.3
20200921212240 21 88 0.0 0.0 0.00 0.00 0.00 52 1027.3
20200921211738 20 88 0.0 1.6 0.00 0.00 0.00 53 1027.3
20200921211238 21 333 0.0 3.2 0.00 0.00 0.00 50 1027.4